When you browse on this site, cookies collect data to enhance your experience and personalize the content and advertising you see.
Visit our Privacy Policy to learn more. By continuing to use the site, you agree to this use of cookies and data.
  • In United Kingdom
  • List of Countries
  • For 7 days
  • Water Temperature
  • Satellite Maps
  • Weather Map
  • Weather Widgets
  • user-avatar
    Login

    Hourly Weather Nzérékoré

    Today, 17 January, Thursday

    Time Temperature Precipitation Wind Pressure Humidity
    00:00 +29°C° 0 mm 2 mps 744 mmHg 13%
    01:00 +28°C° 0 mm 2 mps 744 mmHg 13%
    02:00 +27°C° 0 mm 2 mps 744 mmHg 14%
    03:00 +27°C° 0 mm 2 mps 744 mmHg 14%
    04:00 +26°C° 0 mm 2 mps 744 mmHg 14%
    05:00 +26°C° 0 mm 2 mps 744 mmHg 15%
    06:00 +25°C° 0 mm 2 mps 745 mmHg 15%
    07:00 +25°C° 0 mm 2 mps 745 mmHg 16%
    08:00 +27°C° 0 mm 2 mps 745 mmHg 14%
    09:00 +30°C° 0 mm 3 mps 745 mmHg 12%
    10:00 +33°C° 0 mm 3 mps 746 mmHg 10%
    11:00 +35°C° 0 mm 3 mps 745 mmHg 9%
    12:00 +37°C° 0 mm 3 mps 744 mmHg 8%
    13:00 +40°C° 0 mm 3 mps 744 mmHg 7%
    14:00 +40°C° 0 mm 3 mps 743 mmHg 7%
    15:00 +42°C° 0 mm 3 mps 743 mmHg 6%
    16:00 +42°C° 0 mm 3 mps 742 mmHg 6%
    17:00 +39°C° 0 mm 2 mps 742 mmHg 6%
    18:00 +38°C° 0 mm 2 mps 742 mmHg 7%
    19:00 +35°C° 0 mm 1 mps 742 mmHg 7%
    20:00 +35°C° 0 mm 2 mps 743 mmHg 8%
    21:00 +34°C° 0 mm 2 mps 744 mmHg 8%
    22:00 +32°C° 0 mm 2 mps 744 mmHg 8%
    23:00 +31°C° 0 mm 2 mps 744 mmHg 8%

    Tomorrow, 18 January, Friday

    Time Temperature Precipitation Wind Pressure Humidity
    00:00 +31°C° 0 mm 2 mps 744 mmHg 8%
    01:00 +30°C° 0 mm 1 mps 744 mmHg 8%
    02:00 +29°C° 0 mm 2 mps 744 mmHg 11%
    03:00 +28°C° 0 mm 2 mps 744 mmHg 14%
    04:00 +27°C° 0 mm 2 mps 744 mmHg 17%
    05:00 +27°C° 0 mm 1 mps 744 mmHg 34%
    06:00 +26°C° 0 mm 1 mps 744 mmHg 51%
    07:00 +25°C° 0 mm 1 mps 745 mmHg 68%
    08:00 +28°C° 0 mm 1 mps 745 mmHg 59%
    09:00 +31°C° 0 mm 1 mps 746 mmHg 49%
    10:00 +33°C° 0 mm 1 mps 746 mmHg 39%
    11:00 +35°C° 0 mm 1 mps 746 mmHg 30%
    12:00 +37°C° 0 mm 2 mps 745 mmHg 21%
    13:00 +39°C° 0 mm 2 mps 744 mmHg 12%
    14:00 +40°C° 0 mm 2 mps 743 mmHg 10%
    15:00 +40°C° 0 mm 2 mps 743 mmHg 8%
    16:00 +41°C° 0 mm 2 mps 742 mmHg 6%
    17:00 +39°C° 0 mm 1 mps 742 mmHg 6%
    18:00 +36°C° 0 mm 1 mps 742 mmHg 6%
    19:00 +35°C° 0 mm 1 mps 742 mmHg 6%
    20:00 +32°C° 0 mm 0 mps 743 mmHg 6%
    21:00 +31°C° 0 mm 0 mps 744 mmHg 6%
    22:00 +30°C° 0 mm 0 mps 744 mmHg 7%
    23:00 +30°C° 0 mm 0 mps 744 mmHg 7%

    Day after tomorrow, 19 January, Saturday

    Time Temperature Precipitation Wind Pressure Humidity
    00:00 +31°C° 0 mm 1 mps 744 mmHg 7%
    01:00 +31°C° 0 mm 1 mps 744 mmHg 7%
    02:00 +30°C° 0 mm 1 mps 744 mmHg 25%
    03:00 +29°C° 0 mm 1 mps 744 mmHg 43%
    04:00 +28°C° 0 mm 2 mps 744 mmHg 61%
    05:00 +28°C° 0 mm 1 mps 745 mmHg 67%
    06:00 +27°C° 0 mm 1 mps 745 mmHg 72%
    07:00 +27°C° 0 mm 1 mps 745 mmHg 78%
    08:00 +29°C° 0 mm 1 mps 746 mmHg 69%
    09:00 +31°C° 0 mm 1 mps 746 mmHg 61%
    10:00 +34°C° 0 mm 2 mps 747 mmHg 52%
    11:00 +35°C° 0 mm 1 mps 746 mmHg 43%
    12:00 +39°C° 0 mm 1 mps 745 mmHg 33%
    13:00 +38°C° 0 mm 0 mps 744 mmHg 23%
    14:00 +41°C° 0 mm 1 mps 743 mmHg 22%
    15:00 +41°C° 0 mm 1 mps 742 mmHg 20%
    16:00 +41°C° 0 mm 1 mps 742 mmHg 18%
    17:00 +40°C° 0 mm 1 mps 742 mmHg 19%
    18:00 +36°C° 0 mm 0 mps 742 mmHg 20%
    19:00 +34°C° 0 mm 0 mps 743 mmHg 21%
    20:00 +34°C° 0 mm 0 mps 743 mmHg 22%
    21:00 +33°C° 0 mm 0 mps 744 mmHg 22%
    22:00 +32°C° 0 mm 0 mps 745 mmHg 23%
    23:00 +34°C° 0 mm 1 mps 745 mmHg 25%

    20 January, Sunday

    Time Temperature Precipitation Wind Pressure Humidity
    00:00 +34°C° 0 mm 2 mps 744 mmHg 26%
    01:00 +32°C° 0 mm 2 mps 744 mmHg 28%
    02:00 +33°C° 0 mm 3 mps 744 mmHg 41%
    03:00 +31°C° 0 mm 3 mps 744 mmHg 53%
    04:00 +30°C° 0 mm 4 mps 744 mmHg 66%
    05:00 +29°C° 0 mm 3 mps 744 mmHg 68%
    06:00 +29°C° 0 mm 3 mps 745 mmHg 70%
    07:00 +29°C° 0 mm 2 mps 745 mmHg 72%
    08:00 +30°C° 0 mm 2 mps 746 mmHg 66%
    09:00 +31°C° 0 mm 2 mps 746 mmHg 59%
    10:00 +34°C° 0 mm 2 mps 747 mmHg 53%
    11:00 +36°C° 0 mm 2 mps 746 mmHg 44%
    12:00 +39°C° 0 mm 1 mps 745 mmHg 36%
    13:00 +42°C° 0 mm 1 mps 744 mmHg 27%
    14:00 +42°C° 0 mm 1 mps 743 mmHg 25%
    15:00 +42°C° 0 mm 1 mps 742 mmHg 23%
    16:00 +42°C° 0 mm 1 mps 741 mmHg 20%
    17:00 +41°C° 0 mm 1 mps 742 mmHg 22%
    18:00 +40°C° 0 mm 1 mps 742 mmHg 23%
    19:00 +37°C° 0 mm 1 mps 742 mmHg 24%
    20:00 +37°C° 0 mm 1 mps 743 mmHg 25%
    21:00 +34°C° 0 mm 0 mps 744 mmHg 26%
    22:00 +33°C° 0 mm 0 mps 744 mmHg 27%
    23:00 +35°C° 0 mm 1 mps 744 mmHg 28%

    21 January, Monday

    Time Temperature Precipitation Wind Pressure Humidity
    00:00 +34°C° 0 mm 1 mps 744 mmHg 29%
    01:00 +35°C° 0 mm 2 mps 744 mmHg 30%
    02:00 +34°C° 0 mm 3 mps 744 mmHg 41%
    03:00 +33°C° 0 mm 3 mps 744 mmHg 53%
    04:00 +30°C° 0 mm 4 mps 743 mmHg 64%
    05:00 +30°C° 0 mm 4 mps 744 mmHg 67%
    06:00 +30°C° 0 mm 3 mps 745 mmHg 70%
    07:00 +29°C° 0 mm 3 mps 745 mmHg 73%
    08:00 +30°C° 0 mm 3 mps 746 mmHg 67%
    09:00 +33°C° 0 mm 3 mps 746 mmHg 61%
    10:00 +34°C° 0 mm 3 mps 746 mmHg 55%
    11:00 +36°C° 0 mm 3 mps 745 mmHg 48%
    12:00 +38°C° 0 mm 2 mps 744 mmHg 40%
    13:00 +41°C° 0 mm 2 mps 744 mmHg 32%
    14:00 +40°C° 0 mm 2 mps 743 mmHg 31%
    15:00 +40°C° 0 mm 2 mps 742 mmHg 30%
    16:00 +40°C° 0 mm 2 mps 741 mmHg 29%
    17:00 +39°C° 0 mm 2 mps 741 mmHg 31%
    18:00 +39°C° 0 mm 2 mps 742 mmHg 33%
    19:00 +38°C° 0 mm 3 mps 742 mmHg 35%
    20:00 +38°C° 0 mm 3 mps 743 mmHg 36%
    21:00 +37°C° 0 mm 2 mps 743 mmHg 38%
    22:00 +37°C° 0 mm 2 mps 744 mmHg 39%
    23:00 +36°C° 0 mm 3 mps 744 mmHg 43%

    22 January, Tuesday

    Time Temperature Precipitation Wind Pressure Humidity
    00:00 +35°C° 0 mm 3 mps 744 mmHg 47%
    01:00 +34°C° 0 mm 4 mps 743 mmHg 51%
    02:00 +33°C° 0 mm 4 mps 743 mmHg 55%
    03:00 +32°C° 0 mm 4 mps 743 mmHg 59%
    04:00 +30°C° 0 mm 4 mps 743 mmHg 63%
    05:00 +30°C° 0 mm 4 mps 743 mmHg 65%
    06:00 +29°C° 0 mm 3 mps 744 mmHg 68%
    07:00 +29°C° 0 mm 3 mps 744 mmHg 70%
    08:00 +30°C° 0 mm 3 mps 745 mmHg 65%
    09:00 +31°C° 0 mm 3 mps 745 mmHg 60%
    10:00 +34°C° 0 mm 3 mps 745 mmHg 55%
    11:00 +36°C° 0 mm 3 mps 745 mmHg 48%
    12:00 +38°C° 0 mm 3 mps 744 mmHg 42%
    13:00 +40°C° 0 mm 2 mps 743 mmHg 35%
    14:00 +40°C° 0 mm 2 mps 742 mmHg 31%
    15:00 +41°C° 0 mm 2 mps 741 mmHg 28%
    16:00 +42°C° 0 mm 2 mps 741 mmHg 24%
    17:00 +41°C° 0 mm 2 mps 741 mmHg 26%
    18:00 +40°C° 0 mm 2 mps 741 mmHg 28%
    19:00 +39°C° 0 mm 2 mps 741 mmHg 31%
    20:00 +38°C° 0 mm 3 mps 742 mmHg 33%
    21:00 +38°C° 0 mm 3 mps 742 mmHg 35%
    22:00 +37°C° 0 mm 3 mps 743 mmHg 37%
    23:00 +36°C° 0 mm 3 mps 743 mmHg 43%
    Show more